20040122,000014,1400236,34.376500,-123.921167,NaN,13.722,32.611,39.109,  NaN,0.0, NaN, NaN, NaN, NaN, NaN,352.066,13.40,1022.85,82.40,NaN,93.0,NaN,0.0,NaN,55.3,NaN,4.8,NaN,NaN, NaN,NaN,235.0,NaN,NaN,NaN,2,9.3,000013,   NaN,235.3,     NaN,      NaN,NaN,5.9,NaN,13.726, NaN,NaN,NaN, NaN, NaN

20040122,000044,1400266,34.375667,-123.922500,NaN,13.724,32.612,39.111,  NaN,0.0, NaN, NaN, NaN, NaN, NaN,352.059,13.40,1023.04,81.90,NaN,90.0,NaN,0.0,NaN,58.2,NaN,4.8,NaN,NaN, NaN,NaN,235.0,NaN,NaN,NaN,2,9.5,000043,   NaN,238.3,     NaN,      NaN,NaN,6.1,NaN,13.727, NaN,NaN,NaN, NaN, NaN

20040122,000114,1400296,34.375000,-123.923833,NaN,13.725,32.612,39.112,  NaN,0.0, NaN, NaN, NaN, NaN, NaN,352.074,13.40,1022.79,82.40,NaN,84.0,NaN,0.0,NaN,56.7,NaN,4.9,NaN,NaN, NaN,NaN,238.0,NaN,NaN,NaN,2,9.6,000073,   NaN,236.8,     NaN,      NaN,NaN,5.8,NaN,13.728, NaN,NaN,NaN, NaN, NaN

20040122,000144,1400326,34.374333,-123.925000,NaN,13.724,32.611,39.111,  NaN,0.0, NaN, NaN, NaN, NaN, NaN,352.080,13.40,1022.65,81.90,NaN,87.0,NaN,0.0,NaN,55.7,NaN,5.0,NaN,NaN, NaN,NaN,235.0,NaN,NaN,NaN,2,9.5,000103,   NaN,235.6,     NaN,      NaN,NaN,6.0,NaN,13.727, NaN,NaN,NaN, NaN, NaN

20040122,000214,1400356,34.373500,-123.926500,NaN,13.725,32.612,39.113,  NaN,0.0, NaN, NaN, NaN, NaN, NaN,352.072,13.40,1022.90,81.90,NaN,90.0,NaN,0.0,NaN,58.1,NaN,5.0,NaN,NaN, NaN,NaN,238.0,NaN,NaN,NaN,2,9.6,000133,   NaN,238.1,     NaN,      NaN,NaN,6.1,NaN,13.729, NaN,NaN,NaN, NaN, NaN

20040122,000244,1400386,34.372833,-123.927833,NaN,13.728,32.611,39.114,  NaN,0.0, NaN, NaN, NaN, NaN, NaN,352.199,13.40,1022.78,82.30,NaN,78.0,NaN,0.0,NaN,57.0,NaN,5.0,NaN,NaN, NaN,NaN,237.0,NaN,NaN,NaN,2,9.8,000163,   NaN,236.8,     NaN,      NaN,NaN,6.1,NaN,13.731, NaN,NaN,NaN, NaN, NaN

20040122,000314,1400416,34.372167,-123.929167,NaN,13.727,32.611,39.114,  NaN,0.0, NaN, NaN, NaN, NaN, NaN,352.136,13.40,1022.82,81.90,NaN,74.0,NaN,1.3,NaN,47.9,NaN,4.9,NaN,NaN, NaN,NaN,240.0,NaN,NaN,NaN,2,9.8,000193,   NaN,238.4,     NaN,      NaN,NaN,6.2,NaN,13.730, NaN,NaN,NaN, NaN, NaN

20040122,000344,1400446,34.371333,-123.930500,NaN,13.726,32.611,39.112,  NaN,0.0, NaN, NaN, NaN, NaN, NaN,352.164,13.20,1022.89,81.80,NaN,78.0,NaN,0.0,NaN,57.5,NaN,5.0,NaN,NaN, NaN,NaN,237.0,NaN,NaN,NaN,2,9.8,000223,   NaN,237.5,     NaN,      NaN,NaN,5.9,NaN,13.729, NaN,NaN,NaN, NaN, NaN

20040122,000414,1400476,34.370667,-123.931833,NaN,13.723,32.611,39.110,  NaN,0.0, NaN, NaN, NaN, NaN, NaN,352.062,13.40,1022.83,82.00,NaN,76.0,NaN,0.0,NaN,58.4,NaN,4.9,NaN,NaN, NaN,NaN,237.0,NaN,NaN,NaN,2,9.6,000253,   NaN,237.9,     NaN,      NaN,NaN,6.1,NaN,13.726, NaN,NaN,NaN, NaN, NaN

20040122,000444,1400506,34.369833,-123.933167,NaN,13.725,32.611,39.111,  NaN,0.0, NaN, NaN, NaN, NaN, NaN,352.146,13.40,1022.84,81.90,NaN,78.0,NaN,0.0,NaN,55.9,NaN,4.9,NaN,NaN, NaN,NaN,234.0,NaN,NaN,NaN,2,9.6,000283,   NaN,235.5,     NaN,      NaN,NaN,6.2,NaN,13.728, NaN,NaN,NaN, NaN, NaN

20040122,000514,1400536,34.369167,-123.934500,NaN,13.725,32.611,39.111,  NaN,0.0, NaN, NaN, NaN, NaN, NaN,352.149,13.20,1022.67,81.20,NaN,71.0,NaN,0.0,NaN,55.4,NaN,4.9,NaN,NaN, NaN,NaN,233.0,NaN,NaN,NaN,2,9.6,000313,   NaN,235.5,     NaN,      NaN,NaN,6.2,NaN,13.728, NaN,NaN,NaN, NaN, NaN

20040122,000544,1400566,34.368333,-123.935833,NaN,13.721,32.611,39.107,  NaN,0.0, NaN, NaN, NaN, NaN, NaN,352.052,13.20,1022.96,81.10,NaN,77.0,NaN,0.0,NaN,56.4,NaN,5.0,NaN,NaN, NaN,NaN,235.0,NaN,NaN,NaN,2,9.6,000343,   NaN,236.4,     NaN,      NaN,NaN,6.1,NaN,13.724, NaN,NaN,NaN, NaN, NaN

20040122,000614,1400596,34.367667,-123.937167,NaN,13.721,32.610,39.107,  NaN,0.0, NaN, NaN, NaN, NaN, NaN,352.098,13.20,1022.97,80.70,NaN,71.0,NaN,0.6,NaN,54.2,NaN,5.0,NaN,NaN, NaN,NaN,238.0,NaN,NaN,NaN,2,9.6,000373,   NaN,237.0,     NaN,      NaN,NaN,6.4,NaN,13.724, NaN,NaN,NaN, NaN, NaN

20040122,000644,1400626,34.367000,-123.938500,NaN,13.718,32.610,39.105,  NaN,0.0, NaN, NaN, NaN, NaN, NaN,352.042,13.40,1022.74,81.00,NaN,66.0,NaN,0.0,NaN,57.9,NaN,4.9,NaN,NaN, NaN,NaN,238.0,NaN,NaN,NaN,2,9.6,000403,   NaN,237.3,     NaN,      NaN,NaN,6.0,NaN,13.721, NaN,NaN,NaN, NaN, NaN

20040122,000714,1400656,34.366167,-123.939833,NaN,13.718,32.610,39.104,  NaN,0.0, NaN, NaN, NaN, NaN, NaN,352.091,13.20,1022.79,80.10,NaN,69.0,NaN,0.1,NaN,57.4,NaN,4.9,NaN,NaN, NaN,NaN,238.0,NaN,NaN,NaN,2,9.6,000433,   NaN,237.1,     NaN,      NaN,NaN,6.1,NaN,13.722, NaN,NaN,NaN, NaN, NaN

20040122,000744,1400686,34.365500,-123.941167,NaN,13.722,32.609,39.107,  NaN,0.0, NaN, NaN, NaN, NaN, NaN,352.187,13.40,1022.79,81.00,NaN,61.0,NaN,0.0,NaN,55.8,NaN,5.0,NaN,NaN, NaN,NaN,234.0,NaN,NaN,NaN,2,9.8,000463,   NaN,235.8,     NaN,      NaN,NaN,6.2,NaN,13.725, NaN,NaN,NaN, NaN, NaN

20040122,000814,1400716,34.364667,-123.942500,NaN,13.722,32.610,39.108,  NaN,0.0, NaN, NaN, NaN, NaN, NaN,352.160,13.40,1022.84,80.60,NaN,60.0,NaN,0.0,NaN,56.5,NaN,4.9,NaN,NaN, NaN,NaN,235.0,NaN,NaN,NaN,2,9.7,000493,   NaN,237.3,     NaN,      NaN,NaN,6.3,NaN,13.726, NaN,NaN,NaN, NaN, NaN

20040122,000844,1400746,34.364000,-123.943833,NaN,13.720,32.610,39.105,  NaN,0.0, NaN, NaN, NaN, NaN, NaN,352.127,13.20,1022.86,80.50,NaN,58.0,NaN,0.0,NaN,56.0,NaN,4.9,NaN,NaN, NaN,NaN,235.0,NaN,NaN,NaN,2,9.7,000523,   NaN,236.7,     NaN,      NaN,NaN,6.0,NaN,13.723, NaN,NaN,NaN, NaN, NaN

20040122,000914,1400776,34.363167,-123.945167,NaN,13.718,32.610,39.104,  NaN,0.0, NaN, NaN, NaN, NaN, NaN,352.045,13.40,1022.74,80.70,NaN,56.0,NaN,0.5,NaN,51.9,NaN,4.7,NaN,NaN, NaN,NaN,235.0,NaN,NaN,NaN,2,9.7,000553,   NaN,235.5,     NaN,      NaN,NaN,6.2,NaN,13.721, NaN,NaN,NaN, NaN, NaN

20040122,000944,1400806,34.362500,-123.946500,NaN,13.711,32.612,39.100,  NaN,0.0, NaN, NaN, NaN, NaN, NaN,351.791,13.40,1022.83,80.70,NaN,53.0,NaN,0.0,NaN,58.0,NaN,5.0,NaN,NaN, NaN,NaN,235.0,NaN,NaN,NaN,2,9.7,000583,   NaN,238.0,     NaN,      NaN,NaN,6.1,NaN,13.715, NaN,NaN,NaN, NaN, NaN

20040122,001014,1400836,34.361667,-123.947833,NaN,13.711,32.609,39.096,  NaN,0.0, NaN, NaN, NaN, NaN, NaN,352.034,13.20,1022.79,80.60,NaN,58.0,NaN,0.0,NaN,56.8,NaN,4.9,NaN,NaN, NaN,NaN,237.0,NaN,NaN,NaN,2,9.7,000613,   NaN,237.7,     NaN,      NaN,NaN,6.1,NaN,13.714, NaN,NaN,NaN, NaN, NaN

20040122,001044,1400866,34.361000,-123.949167,NaN,13.709,32.610,39.095,  NaN,0.0, NaN, NaN, NaN, NaN, NaN,351.904,13.20,1022.90,80.30,NaN,54.0,NaN,0.6,NaN,58.1,NaN,4.9,NaN,NaN, NaN,NaN,238.0,NaN,NaN,NaN,2,9.6,000643,   NaN,239.3,     NaN,      NaN,NaN,6.2,NaN,13.712, NaN,NaN,NaN, NaN, NaN

20040122,001114,1400896,34.360333,-123.950667,NaN,13.703,32.611,39.091,  NaN,0.0, NaN, NaN, NaN, NaN, NaN,351.720,13.20,1022.73,80.20,NaN,54.0,NaN,0.4,NaN,54.0,NaN,4.6,NaN,NaN, NaN,NaN,238.0,NaN,NaN,NaN,2,9.6,000673,   NaN,239.6,     NaN,      NaN,NaN,6.2,NaN,13.706, NaN,NaN,NaN, NaN, NaN

20040122,001144,1400926,34.359667,-123.952000,NaN,13.702,32.610,39.090,  NaN,0.0, NaN, NaN, NaN, NaN, NaN,351.726,13.20,1022.79,79.80,NaN,48.0,NaN,0.4,NaN,56.3,NaN,4.9,NaN,NaN, NaN,NaN,237.0,NaN,NaN,NaN,2,9.7,000703,   NaN,238.6,     NaN,      NaN,NaN,6.0,NaN,13.705, NaN,NaN,NaN, NaN, NaN

20040122,001214,1400956,34.358833,-123.953333,NaN,13.703,32.610,39.090,  NaN,0.0, NaN, NaN, NaN, NaN, NaN,351.792,13.40,1022.62,80.60,NaN,44.0,NaN,0.9,NaN,46.9,NaN,4.2,NaN,NaN, NaN,NaN,238.0,NaN,NaN,NaN,2,9.8,000733,   NaN,239.4,     NaN,      NaN,NaN,6.3,NaN,13.706, NaN,NaN,NaN, NaN, NaN

20040122,001244,1400986,34.358167,-123.954833,NaN,13.698,32.611,39.087,  NaN,0.0, NaN, NaN, NaN, NaN, NaN,351.606,13.40,1022.76,81.10,NaN,44.0,NaN,0.8,NaN,50.7,NaN,4.4,NaN,NaN, NaN,NaN,238.0,NaN,NaN,NaN,2,9.5,000763,   NaN,237.8,     NaN,      NaN,NaN,6.1,NaN,13.701, NaN,NaN,NaN, NaN, NaN

20040122,001314,1401016,34.357500,-123.956167,NaN,13.695,32.612,39.084,  NaN,0.0, NaN, NaN, NaN, NaN, NaN,351.502,13.40,1022.84,81.20,NaN,53.0,NaN,1.6,NaN,41.2,NaN,4.3,NaN,NaN, NaN,NaN,239.0,NaN,NaN,NaN,2,9.7,000793,   NaN,239.2,     NaN,      NaN,NaN,6.0,NaN,13.698, NaN,NaN,NaN, NaN, NaN

20040122,001344,1401046,34.356833,-123.957500,NaN,13.690,32.612,39.080,  NaN,0.0, NaN, NaN, NaN, NaN, NaN,351.411,13.40,1022.75,81.90,NaN,53.0,NaN,1.6,NaN,40.2,NaN,4.2,NaN,NaN, NaN,NaN,239.0,NaN,NaN,NaN,2,9.8,000823,   NaN,238.2,     NaN,      NaN,NaN,6.1,NaN,13.693, NaN,NaN,NaN, NaN, NaN

20040122,001414,1401076,34.356000,-123.958833,NaN,13.689,32.612,39.079,  NaN,0.0, NaN, NaN, NaN, NaN, NaN,351.371,13.40,1023.04,81.90,NaN,53.0,NaN,1.0,NaN,48.2,NaN,4.4,NaN,NaN, NaN,NaN,236.0,NaN,NaN,NaN,2,9.7,000853,   NaN,238.8,     NaN,      NaN,NaN,6.1,NaN,13.692, NaN,NaN,NaN, NaN, NaN

20040122,001444,1401106,34.355333,-123.960167,NaN,13.689,32.612,39.079,  NaN,0.0, NaN, NaN, NaN, NaN, NaN,351.346,13.20,1022.83,81.50,NaN,50.0,NaN,1.5,NaN,41.0,NaN,4.1,NaN,NaN, NaN,NaN,238.0,NaN,NaN,NaN,2,9.6,000883,   NaN,237.9,     NaN,      NaN,NaN,6.3,NaN,13.692, NaN,NaN,NaN, NaN, NaN

20040122,001514,1401136,34.354667,-123.961667,NaN,13.687,32.612,39.078,  NaN,0.0, NaN, NaN, NaN, NaN, NaN,351.352,13.20,1022.98,82.00,NaN,49.0,NaN,1.5,NaN,43.8,NaN,4.1,NaN,NaN, NaN,NaN,241.0,NaN,NaN,NaN,2,9.5,000913,   NaN,239.9,     NaN,      NaN,NaN,6.2,NaN,13.691, NaN,NaN,NaN, NaN, NaN

20040122,001544,1401166,34.354000,-123.963000,NaN,13.684,32.613,39.076,  NaN,0.0, NaN, NaN, NaN, NaN, NaN,351.179,13.20,1023.08,82.10,NaN,47.0,NaN,2.1,NaN,36.3,NaN,3.8,NaN,NaN, NaN,NaN,240.0,NaN,NaN,NaN,2,9.5,000943,   NaN,240.4,     NaN,      NaN,NaN,6.0,NaN,13.687, NaN,NaN,NaN, NaN, NaN

20040122,001614,1401196,34.353333,-123.964333,NaN,13.684,32.613,39.076,  NaN,0.0, NaN, NaN, NaN, NaN, NaN,351.182,13.10,1022.96,82.10,NaN,47.0,NaN,2.1,NaN,34.4,NaN,3.8,NaN,NaN, NaN,NaN,239.0,NaN,NaN,NaN,2,9.6,000973,   NaN,237.7,     NaN,      NaN,NaN,6.3,NaN,13.687, NaN,NaN,NaN, NaN, NaN

20040122,001644,1401226,34.352667,-123.965667,NaN,13.680,32.613,39.073,  NaN,0.0, NaN, NaN, NaN, NaN, NaN,351.107,13.20,1023.16,82.40,NaN,54.0,NaN,2.1,NaN,32.8,NaN,4.1,NaN,NaN, NaN,NaN,237.0,NaN,NaN,NaN,2,9.7,001003,   NaN,237.2,     NaN,      NaN,NaN,5.9,NaN,13.683, NaN,NaN,NaN, NaN, NaN

20040122,001714,1401256,34.351833,-123.967000,NaN,13.676,32.613,39.068,  NaN,0.0, NaN, NaN, NaN, NaN, NaN,351.037,13.20,1023.15,82.00,NaN,44.0,NaN,1.4,NaN,46.5,NaN,4.0,NaN,NaN, NaN,NaN,239.0,NaN,NaN,NaN,2,9.6,001033,   NaN,240.4,     NaN,      NaN,NaN,6.0,NaN,13.679, NaN,NaN,NaN, NaN, NaN

20040122,001744,1401286,34.351167,-123.968500,NaN,13.669,32.613,39.063,  NaN,0.0, NaN, NaN, NaN, NaN, NaN,350.902,13.20,1022.92,81.90,NaN,30.0,NaN,2.6,NaN,34.9,NaN,3.0,NaN,NaN, NaN,NaN,241.0,NaN,NaN,NaN,2,9.7,001063,   NaN,240.0,     NaN,      NaN,NaN,5.8,NaN,13.673, NaN,NaN,NaN, NaN, NaN

20040122,001814,1401316,34.350500,-123.969833,NaN,13.660,32.613,39.055,  NaN,0.0, NaN, NaN, NaN, NaN, NaN,350.715,13.20,1023.00,82.00,NaN,37.0,NaN,2.2,NaN,37.4,NaN,3.5,NaN,NaN, NaN,NaN,238.0,NaN,NaN,NaN,2,9.7,001093,   NaN,239.5,     NaN,      NaN,NaN,5.9,NaN,13.664, NaN,NaN,NaN, NaN, NaN

20040122,001844,1401346,34.349833,-123.971167,NaN,13.655,32.614,39.051,  NaN,0.0, NaN, NaN, NaN, NaN, NaN,350.529,13.10,1023.13,82.10,NaN,47.0,NaN,2.2,NaN,34.7,NaN,3.8,NaN,NaN, NaN,NaN,239.0,NaN,NaN,NaN,2,9.7,001123,   NaN,239.2,     NaN,      NaN,NaN,5.9,NaN,13.658, NaN,NaN,NaN, NaN, NaN

20040122,001914,1401376,34.349167,-123.972500,NaN,13.650,32.615,39.047,  NaN,0.0, NaN, NaN, NaN, NaN, NaN,350.411,13.10,1023.06,82.30,NaN,60.0,NaN,1.7,NaN,36.9,NaN,4.3,NaN,NaN, NaN,NaN,238.0,NaN,NaN,NaN,2,9.6,001153,   NaN,238.1,     NaN,      NaN,NaN,6.0,NaN,13.654, NaN,NaN,NaN, NaN, NaN

20040122,001944,1401406,34.348500,-123.973833,NaN,13.648,32.615,39.045,  NaN,0.0, NaN, NaN, NaN, NaN, NaN,350.328,13.10,1023.04,82.00,NaN,53.0,NaN,2.4,NaN,30.6,NaN,3.9,NaN,NaN, NaN,NaN,240.0,NaN,NaN,NaN,2,9.4,001183,   NaN,239.7,     NaN,      NaN,NaN,6.0,NaN,13.651, NaN,NaN,NaN, NaN, NaN

20040122,002014,1401436,34.347667,-123.975333,NaN,13.647,32.616,39.045,  NaN,0.0, NaN, NaN, NaN, NaN, NaN,350.218,13.10,1023.15,82.10,NaN,50.0,NaN,3.1,NaN,21.2,NaN,3.8,NaN,NaN, NaN,NaN,240.0,NaN,NaN,NaN,2,9.7,001213,   NaN,240.0,     NaN,      NaN,NaN,6.0,NaN,13.650, NaN,NaN,NaN, NaN, NaN

20040122,002044,1401466,34.347000,-123.976667,NaN,13.643,32.618,39.044,  NaN,0.0, NaN, NaN, NaN, NaN, NaN,350.001,13.10,1023.06,82.40,NaN,52.0,NaN,2.7,NaN,24.7,NaN,3.9,NaN,NaN, NaN,NaN,237.0,NaN,NaN,NaN,2,9.8,001243,   NaN,237.7,     NaN,      NaN,NaN,6.1,NaN,13.646, NaN,NaN,NaN, NaN, NaN

20040122,002114,1401496,34.346333,-123.978000,NaN,13.620,32.618,39.023,  NaN,0.0, NaN, NaN, NaN, NaN, NaN,349.576,13.10,1022.96,81.80,NaN,52.0,NaN,1.7,NaN,39.4,NaN,4.1,NaN,NaN, NaN,NaN,235.0,NaN,NaN,NaN,2,9.8,001273,   NaN,238.4,     NaN,      NaN,NaN,6.3,NaN,13.623, NaN,NaN,NaN, NaN, NaN

20040122,002144,1401526,34.345500,-123.979500,NaN,13.608,32.618,39.011,  NaN,0.0, NaN, NaN, NaN, NaN, NaN,349.361,13.00,1023.22,81.80,NaN,49.0,NaN,2.7,NaN,26.1,NaN,3.8,NaN,NaN, NaN,NaN,240.0,NaN,NaN,NaN,2,9.8,001303,   NaN,238.8,     NaN,      NaN,NaN,6.0,NaN,13.611, NaN,NaN,NaN, NaN, NaN

20040122,002214,1401556,34.344833,-123.980833,NaN,13.602,32.619,39.007,  NaN,0.0, NaN, NaN, NaN, NaN, NaN,349.152,13.10,1023.06,81.60,NaN,47.0,NaN,2.1,NaN,37.3,NaN,3.9,NaN,NaN, NaN,NaN,239.0,NaN,NaN,NaN,2,9.8,001333,   NaN,239.9,     NaN,      NaN,NaN,6.3,NaN,13.605, NaN,NaN,NaN, NaN, NaN

20040122,002244,1401586,34.344167,-123.982167,NaN,13.600,32.618,39.004,  NaN,0.0, NaN, NaN, NaN, NaN, NaN,349.188,13.10,1023.19,81.40,NaN,39.0,NaN,3.6,NaN,17.1,NaN,3.3,NaN,NaN, NaN,NaN,243.0,NaN,NaN,NaN,2,10.0,001363,   NaN,241.1,     NaN,      NaN,NaN,6.2,NaN,13.603, NaN,NaN,NaN, NaN, NaN

20040122,002314,1401616,34.343500,-123.983667,NaN,13.604,32.617,39.007,  NaN,0.0, NaN, NaN, NaN, NaN, NaN,349.332,13.10,1023.05,82.50,NaN,47.0,NaN,2.9,NaN,25.6,NaN,3.7,NaN,NaN, NaN,NaN,242.0,NaN,NaN,NaN,2,9.8,001393,   NaN,241.6,     NaN,      NaN,NaN,6.1,NaN,13.607, NaN,NaN,NaN, NaN, NaN

20040122,002344,1401646,34.342833,-123.985000,NaN,13.602,32.619,39.008,  NaN,0.0, NaN, NaN, NaN, NaN, NaN,349.196,13.10,1023.19,82.40,NaN,59.0,NaN,3.2,NaN,21.2,NaN,4.3,NaN,NaN, NaN,NaN,241.0,NaN,NaN,NaN,2,9.8,001423,   NaN,241.4,     NaN,      NaN,NaN,6.3,NaN,13.606, NaN,NaN,NaN, NaN, NaN

20040122,002414,1401676,34.342167,-123.986500,NaN,13.605,32.618,39.009,  NaN,0.0, NaN, NaN, NaN, NaN, NaN,349.325,13.10,1023.15,82.00,NaN,65.0,NaN,2.1,NaN,38.8,NaN,4.6,NaN,NaN, NaN,NaN,241.0,NaN,NaN,NaN,2,9.8,001453,   NaN,243.1,     NaN,      NaN,NaN,6.3,NaN,13.608, NaN,NaN,NaN, NaN, NaN

20040122,002444,1401706,34.341500,-123.988000,NaN,13.606,32.618,39.010,  NaN,0.0, NaN, NaN, NaN, NaN, NaN,349.275,13.10,1023.15,82.60,NaN,56.0,NaN,1.9,NaN,39.6,NaN,4.2,NaN,NaN, NaN,NaN,239.0,NaN,NaN,NaN,2,9.7,001483,   NaN,240.8,     NaN,      NaN,NaN,6.0,NaN,13.609, NaN,NaN,NaN, NaN, NaN

20040122,002514,1401736,34.340833,-123.989333,NaN,13.607,32.618,39.010,  NaN,0.0, NaN, NaN, NaN, NaN, NaN,349.364,13.10,1023.00,82.50,NaN,51.0,NaN,3.0,NaN,25.6,NaN,4.0,NaN,NaN, NaN,NaN,243.0,NaN,NaN,NaN,2,9.8,001513,   NaN,241.8,     NaN,      NaN,NaN,6.2,NaN,13.610, NaN,NaN,NaN, NaN, NaN

20040122,002544,1401766,34.340167,-123.990833,NaN,13.606,32.618,39.011,  NaN,0.0, NaN, NaN, NaN, NaN, NaN,349.295,13.10,1022.90,82.80,NaN,57.0,NaN,2.3,NaN,36.4,NaN,4.3,NaN,NaN, NaN,NaN,239.0,NaN,NaN,NaN,2,9.8,001543,   NaN,241.7,     NaN,      NaN,NaN,6.3,NaN,13.610, NaN,NaN,NaN, NaN, NaN

20040122,002614,1401796,34.339500,-123.992167,NaN,13.606,32.619,39.011,  NaN,0.0, NaN, NaN, NaN, NaN, NaN,349.248,13.10,1023.10,82.90,NaN,59.0,NaN,1.9,NaN,41.5,NaN,4.4,NaN,NaN, NaN,NaN,239.0,NaN,NaN,NaN,2,9.8,001573,   NaN,242.7,     NaN,      NaN,NaN,6.2,NaN,13.609, NaN,NaN,NaN, NaN, NaN

20040122,002644,1401826,34.339000,-123.993667,NaN,13.604,32.620,39.011,  NaN,0.0, NaN, NaN, NaN, NaN, NaN,349.137,13.00,1023.32,82.50,NaN,58.0,NaN,3.1,NaN,23.2,NaN,4.3,NaN,NaN, NaN,NaN,242.0,NaN,NaN,NaN,2,9.8,001603,   NaN,241.5,     NaN,      NaN,NaN,6.0,NaN,13.608, NaN,NaN,NaN, NaN, NaN

20040122,002714,1401856,34.338333,-123.995000,NaN,13.602,32.620,39.009,  NaN,0.0, NaN, NaN, NaN, NaN, NaN,349.099,13.00,1022.98,82.30,NaN,60.0,NaN,2.2,NaN,35.9,NaN,4.4,NaN,NaN, NaN,NaN,240.0,NaN,NaN,NaN,2,9.8,001633,   NaN,241.3,     NaN,      NaN,NaN,6.0,NaN,13.606, NaN,NaN,NaN, NaN, NaN

20040122,002744,1401886,34.337667,-123.996500,NaN,13.600,32.620,39.006,  NaN,0.0, NaN, NaN, NaN, NaN, NaN,349.089,13.00,1023.08,82.40,NaN,58.0,NaN,1.7,NaN,42.4,NaN,4.3,NaN,NaN, NaN,NaN,240.0,NaN,NaN,NaN,2,9.7,001663,   NaN,242.2,     NaN,      NaN,NaN,6.1,NaN,13.603, NaN,NaN,NaN, NaN, NaN

20040122,002814,1401916,34.337000,-123.998000,NaN,13.600,32.620,39.007,  NaN,0.0, NaN, NaN, NaN, NaN, NaN,349.064,13.00,1023.03,83.20,NaN,46.0,NaN,2.4,NaN,36.0,NaN,3.8,NaN,NaN, NaN,NaN,239.0,NaN,NaN,NaN,2,9.8,001693,   NaN,242.6,     NaN,      NaN,NaN,6.1,NaN,13.604, NaN,NaN,NaN, NaN, NaN

20040122,002844,1401946,34.336333,-123.999333,NaN,13.599,32.621,39.007,  NaN,0.0, NaN, NaN, NaN, NaN, NaN,348.953,13.10,1023.22,82.90,NaN,44.0,NaN,3.9,NaN,11.8,NaN,3.5,NaN,NaN, NaN,NaN,242.0,NaN,NaN,NaN,2,10.0,001723,   NaN,241.3,     NaN,      NaN,NaN,6.0,NaN,13.602, NaN,NaN,NaN, NaN, NaN

20040122,002914,1401976,34.335667,-124.000833,NaN,13.600,32.622,39.008,  NaN,0.0, NaN, NaN, NaN, NaN, NaN,348.922,13.00,1023.09,83.30,NaN,50.0,NaN,3.1,NaN,24.1,NaN,3.9,NaN,NaN, NaN,NaN,242.0,NaN,NaN,NaN,2,9.9,001753,   NaN,242.2,     NaN,      NaN,NaN,6.2,NaN,13.603, NaN,NaN,NaN, NaN, NaN

20040122,002944,1402006,34.335000,-124.002333,NaN,13.602,32.623,39.012,  NaN,0.0, NaN, NaN, NaN, NaN, NaN,348.839,13.00,1022.92,83.20,NaN,57.0,NaN,2.8,NaN,27.2,NaN,4.2,NaN,NaN, NaN,NaN,240.0,NaN,NaN,NaN,2,9.8,001783,   NaN,241.3,     NaN,      NaN,NaN,6.3,NaN,13.605, NaN,NaN,NaN, NaN, NaN

20040122,003014,1402036,34.334333,-124.003667,NaN,13.605,32.625,39.017,  NaN,0.0, NaN, NaN, NaN, NaN, NaN,348.773,13.00,1023.10,83.20,NaN,48.0,NaN,2.3,NaN,37.5,NaN,4.0,NaN,NaN, NaN,NaN,238.0,NaN,NaN,NaN,2,9.9,001813,   NaN,242.7,     NaN,      NaN,NaN,6.1,NaN,13.608, NaN,NaN,NaN, NaN, NaN

20040122,003044,1402066,34.333667,-124.005167,NaN,13.607,32.627,39.021,  NaN,0.0, NaN, NaN, NaN, NaN, NaN,348.622,13.00,1023.06,83.50,NaN,57.0,NaN,1.5,NaN,43.6,NaN,4.5,NaN,NaN, NaN,NaN,237.0,NaN,NaN,NaN,2,9.8,001843,   NaN,239.7,     NaN,      NaN,NaN,6.2,NaN,13.610, NaN,NaN,NaN, NaN, NaN

20040122,003114,1402096,34.333000,-124.006667,NaN,13.610,32.629,39.025,  NaN,0.0, NaN, NaN, NaN, NaN, NaN,348.604,13.00,1023.25,83.00,NaN,59.0,NaN,1.7,NaN,42.0,NaN,4.4,NaN,NaN, NaN,NaN,238.0,NaN,NaN,NaN,2,9.7,001873,   NaN,242.2,     NaN,      NaN,NaN,5.9,NaN,13.613, NaN,NaN,NaN, NaN, NaN

20040122,003144,1402126,34.332333,-124.008000,NaN,13.615,32.629,39.030,  NaN,0.0, NaN, NaN, NaN, NaN, NaN,348.645,13.00,1023.09,83.40,NaN,54.0,NaN,2.5,NaN,33.3,NaN,4.2,NaN,NaN, NaN,NaN,240.0,NaN,NaN,NaN,2,9.7,001903,   NaN,241.4,     NaN,      NaN,NaN,5.9,NaN,13.618, NaN,NaN,NaN, NaN, NaN

20040122,003214,1402156,34.331667,-124.009500,NaN,13.617,32.633,39.036,  NaN,0.0, NaN, NaN, NaN, NaN, NaN,348.441,13.00,1023.28,83.40,NaN,50.0,NaN,2.4,NaN,35.2,NaN,4.0,NaN,NaN, NaN,NaN,238.0,NaN,NaN,NaN,2,9.9,001933,   NaN,242.1,     NaN,      NaN,NaN,6.0,NaN,13.620, NaN,NaN,NaN, NaN, NaN

20040122,003244,1402186,34.331000,-124.010833,NaN,13.617,32.634,39.037,  NaN,0.0, NaN, NaN, NaN, NaN, NaN,348.345,13.00,1023.11,83.30,NaN,46.0,NaN,2.1,NaN,39.5,NaN,3.9,NaN,NaN, NaN,NaN,240.0,NaN,NaN,NaN,2,9.7,001963,   NaN,241.8,     NaN,      NaN,NaN,6.3,NaN,13.620, NaN,NaN,NaN, NaN, NaN

20040122,003314,1402216,34.330333,-124.012333,NaN,13.611,32.638,39.036,  NaN,0.0, NaN, NaN, NaN, NaN, NaN,347.926,13.00,1023.25,83.50,NaN,46.0,NaN,2.7,NaN,30.1,NaN,3.7,NaN,NaN, NaN,NaN,239.0,NaN,NaN,NaN,2,9.6,001993,   NaN,242.7,     NaN,      NaN,NaN,6.1,NaN,13.614, NaN,NaN,NaN, NaN, NaN

20040122,003344,1402246,34.329667,-124.013667,NaN,13.603,32.641,39.031,  NaN,0.0, NaN, NaN, NaN, NaN, NaN,347.587,13.10,1023.41,84.10,NaN,41.0,NaN,4.0,NaN,10.0,NaN,3.3,NaN,NaN, NaN,NaN,241.0,NaN,NaN,NaN,2,9.8,002023,   NaN,242.6,     NaN,      NaN,NaN,6.1,NaN,13.606, NaN,NaN,NaN, NaN, NaN

20040122,003414,1402276,34.329000,-124.015167,NaN,13.588,32.644,39.022,  NaN,0.0, NaN, NaN, NaN, NaN, NaN,347.024,13.10,1023.35,84.30,NaN,44.0,NaN,4.1,NaN,6.8,NaN,3.5,NaN,NaN, NaN,NaN,242.0,NaN,NaN,NaN,2,9.7,002053,   NaN,242.0,     NaN,      NaN,NaN,6.2,NaN,13.591, NaN,NaN,NaN, NaN, NaN

20040122,003444,1402306,34.328333,-124.016500,NaN,13.574,32.646,39.011,  NaN,0.0, NaN, NaN, NaN, NaN, NaN,346.619,13.00,1023.23,84.10,NaN,56.0,NaN,3.0,NaN,25.8,NaN,4.2,NaN,NaN, NaN,NaN,241.0,NaN,NaN,NaN,2,9.7,002083,   NaN,242.1,     NaN,      NaN,NaN,6.2,NaN,13.577, NaN,NaN,NaN, NaN, NaN

20040122,003514,1402336,34.327667,-124.018000,NaN,13.559,32.651,39.002,  NaN,0.0, NaN, NaN, NaN, NaN, NaN,345.984,13.00,1023.33,83.70,NaN,48.0,NaN,3.3,NaN,20.7,NaN,3.7,NaN,NaN, NaN,NaN,240.0,NaN,NaN,NaN,2,9.8,002113,   NaN,242.0,     NaN,      NaN,NaN,6.1,NaN,13.562, NaN,NaN,NaN, NaN, NaN

20040122,003544,1402366,34.327000,-124.019500,NaN,13.548,32.654,38.996,  NaN,0.0, NaN, NaN, NaN, NaN, NaN,345.495,12.80,1023.32,83.20,NaN,45.0,NaN,2.8,NaN,29.1,NaN,3.6,NaN,NaN, NaN,NaN,241.0,NaN,NaN,NaN,2,9.8,002143,   NaN,242.4,     NaN,      NaN,NaN,6.2,NaN,13.551, NaN,NaN,NaN, NaN, NaN

20040122,003614,1402396,34.326333,-124.020833,NaN,13.543,32.656,38.994,  NaN,0.0, NaN, NaN, NaN, NaN, NaN,345.279,13.00,1023.18,83.40,NaN,49.0,NaN,3.0,NaN,26.3,NaN,3.8,NaN,NaN, NaN,NaN,242.0,NaN,NaN,NaN,2,9.8,002173,   NaN,242.8,     NaN,      NaN,NaN,6.3,NaN,13.546, NaN,NaN,NaN, NaN, NaN

20040122,003644,1402426,34.325667,-124.022333,NaN,13.537,32.660,38.992,  NaN,0.0, NaN, NaN, NaN, NaN, NaN,344.882,13.00,1023.32,83.40,NaN,50.0,NaN,3.0,NaN,24.8,NaN,3.9,NaN,NaN, NaN,NaN,241.0,NaN,NaN,NaN,2,9.8,002203,   NaN,242.1,     NaN,      NaN,NaN,6.3,NaN,13.540, NaN,NaN,NaN, NaN, NaN

20040122,003714,1402456,34.325000,-124.023833,NaN,13.531,32.663,38.990,  NaN,0.0, NaN, NaN, NaN, NaN, NaN,344.556,13.00,1023.37,83.70,NaN,49.0,NaN,2.2,NaN,38.6,NaN,4.0,NaN,NaN, NaN,NaN,240.0,NaN,NaN,NaN,2,9.8,002233,   NaN,242.1,     NaN,      NaN,NaN,6.0,NaN,13.534, NaN,NaN,NaN, NaN, NaN

20040122,003744,1402486,34.324333,-124.025167,NaN,13.508,32.658,38.963,  NaN,0.0, NaN, NaN, NaN, NaN, NaN,344.515,13.00,1023.29,83.30,NaN,47.0,NaN,2.5,NaN,34.6,NaN,3.8,NaN,NaN, NaN,NaN,245.0,NaN,NaN,NaN,2,9.7,002263,   NaN,242.9,     NaN,      NaN,NaN,6.2,NaN,13.512, NaN,NaN,NaN, NaN, NaN

20040122,003814,1402516,34.323667,-124.026667,NaN,13.489,32.647,38.934,  NaN,0.0, NaN, NaN, NaN, NaN, NaN,344.962,13.00,1023.12,83.80,NaN,35.0,NaN,1.6,NaN,49.0,NaN,3.8,NaN,NaN, NaN,NaN,238.0,NaN,NaN,NaN,2,9.8,002293,   NaN,243.6,     NaN,      NaN,NaN,5.9,NaN,13.493, NaN,NaN,NaN, NaN, NaN

20040122,003844,1402546,34.323167,-124.028000,NaN,13.485,32.636,38.918,  NaN,0.0, NaN, NaN, NaN, NaN, NaN,345.687,13.00,1023.30,83.70,NaN,57.0,NaN,2.7,NaN,32.4,NaN,4.2,NaN,NaN, NaN,NaN,244.0,NaN,NaN,NaN,2,9.7,002323,   NaN,244.7,     NaN,      NaN,NaN,6.2,NaN,13.488, NaN,NaN,NaN, NaN, NaN

20040122,003914,1402576,34.322500,-124.029500,NaN,13.481,32.629,38.907,  NaN,0.0, NaN, NaN, NaN, NaN, NaN,346.119,13.00,1023.23,83.90,NaN,58.0,NaN,3.1,NaN,27.8,NaN,4.3,NaN,NaN, NaN,NaN,244.0,NaN,NaN,NaN,2,9.7,002353,   NaN,246.5,     NaN,      NaN,NaN,6.0,NaN,13.484, NaN,NaN,NaN, NaN, NaN

20040122,003944,1402606,34.322000,-124.031000,NaN,13.475,32.622,38.895,  NaN,0.0, NaN, NaN, NaN, NaN, NaN,346.469,13.00,1023.29,83.70,NaN,61.0,NaN,3.6,NaN,21.5,NaN,4.5,NaN,NaN, NaN,NaN,247.0,NaN,NaN,NaN,2,9.7,002383,   NaN,246.5,     NaN,      NaN,NaN,5.9,NaN,13.478, NaN,NaN,NaN, NaN, NaN

20040122,004014,1402636,34.321500,-124.032500,NaN,13.471,32.617,38.885,  NaN,0.0, NaN, NaN, NaN, NaN, NaN,346.828,13.00,1023.15,84.10,NaN,59.0,NaN,2.7,NaN,34.0,NaN,4.3,NaN,NaN, NaN,NaN,244.0,NaN,NaN,NaN,2,9.7,002413,   NaN,246.9,     NaN,      NaN,NaN,6.1,NaN,13.474, NaN,NaN,NaN, NaN, NaN
